Location: Battery Park City
(40.7115°N, 74.0163°W)
Time: 04:25:59
(UTC+00:00)

Meteor 1-5 Rocket - Pass Details

Date: 08 December 2019
Orbit: 788 x 916 km, 81.2° (Epoch: 18 January)

Event Time Altitude Azimuth Distance (km) Brightness Sun altitude
Rises 22:13:31 0° 351° (N) 3,415 7.2 -8.5°
Reaches altitude 10° 22:15:59 10° 353° (N) 2,457 6.5 -8.9°
Maximum altitude 22:21:32 78° 80° (E) 838 4.1 -9.9°
Drops below altitude 10° 22:26:53 10° 167° (SSE) 2,369 6.6 -10.8°
Sets 22:29:14 0° 169° (SSE) 3,284 7.4 -11.2°
